This is the latest recevied weather packets stored in our database for station/object LU2DKV-10. If no packets are shown the sender has not sent any weather packets the latest 10 day(s).
| Time | Temp. | Humidity | Pressure | Rain* | Wind** | Luminosity | Snow |
|---|---|---|---|---|---|---|---|
| 1788678127 | 5.56° C | 73% | 1032 hPa | - | - | 0 W/m² | - |
| 1788677589 | 5.56° C | 72% | 1032 hPa | - | - | 0 W/m² | - |
| 1788675767 | 5.56° C | 73% | 1032 hPa | - | - | 0 W/m² | - |
| 1788672121 | 6.11° C | 74% | 1032 hPa | - | - | 0 W/m² | - |
| 1788670297 | 6.67° C | 75% | 1032 hPa | - | - | 0 W/m² | - |
| 1788668475 | 6.67° C | 73% | 1032 hPa | - | - | 0 W/m² | - |
| 1788666626 | 6.67° C | 74% | 1031 hPa | - | - | 0 W/m² | - |
| 1788664802 | 7.22° C | 72% | 1031 hPa | - | - | 0 W/m² | - |
| 1788662980 | 7.78° C | 71% | 1031 hPa | - | - | 0 W/m² | - |
| 1788660947 | 7.78° C | 72% | 1030 hPa | - | - | 0 W/m² | - |
| 1788655474 | 8.33° C | 71% | 1029 hPa | - | - | 0 W/m² | - |
| 1788653651 | 8.89° C | 69% | 1029 hPa | - | - | 0 W/m² | - |
| 1788648182 | 9.44° C | 63% | 1027 hPa | - | - | 0 W/m² | - |
| 1788646359 | 10° C | 64% | 1027 hPa | - | - | 0 W/m² | - |
| 1788644536 | 10° C | 69% | 1026 hPa | - | - | 0 W/m² | - |
| 1788636975 | 13.89° C | 47% | 1024 hPa | - | - | 0 W/m² | - |
| 1788635152 | 13.33° C | 45% | 1024 hPa | - | - | 0 W/m² | - |
| 1788633327 | 15° C | 45% | 1023 hPa | - | - | 0 W/m² | - |
| 1788632327 | 15.56° C | 45% | 1023 hPa | - | - | 0 W/m² | - |
| 1788630501 | 14.44° C | 50% | 1024 hPa | - | - | 0 W/m² | - |
| 1788628677 | 15° C | 44% | 1024 hPa | - | - | 0 W/m² | - |
| 1788626854 | 13.89° C | 47% | 1024 hPa | - | - | 0 W/m² | - |
| 1788625030 | 13.89° C | 44% | 1024 hPa | - | - | 0 W/m² | - |
| 1788623207 | 12.78° C | 44% | 1024 hPa | - | - | 0 W/m² | - |
| 1788620931 | 12.78° C | 47% | 1025 hPa | - | - | 0 W/m² | - |
* Rain since midnight (hover to see other rain measurements)
** Current wind speed in m/s (hover to see current wind gust speed)